Vorticity
10 9 9 8 8 7 7 7 6 8 6 7 8 8 11 11 11 19 15 1 8 6 1 -5 -11 6 1 7 9 -2 11 10 8 9 5 3 3 6 3 -1 1 1 -2 -1 0 -0 1 3 4 6 5 5 6 5 7 7 7 6 5 5 5 4 3 4 4 7 7 7 6 8 9 7 6 3 6 8 6 6 6 6 6 7 6 7 8 8 9 8 8 8 8 7 7 8 7 7 7
9 10 9 9 8 7 8 7 6 8 7 7 8 10 16 20 18 19 7 4 13 7 7 -3 1 16 4 17 17 3 6 4 4 1 1 -0 4 5 -6 -6 -3 -4 -2 2 1 1 4 6 6 7 7 7 6 8 8 7 7 6 5 5 5 4 3 4 6 8 8 8 7 7 9 8 6 5 7 6 4 5 6 6 6 6 6 8 7 8 9 7 8 8 8 7 7 8 7 7 7
9 10 9 9 8 7 9 8 7 8 9 7 10 16 19 30 20 2 -1 -2 -8 -9 8 5 5 14 6 11 5 2 12 13 11 5 6 2 6 7 -0 4 2 2 6 5 4 6 7 7 7 7 7 7 7 8 7 6 6 6 6 5 4 4 5 6 8 10 8 9 9 6 8 7 8 9 7 4 3 4 5 5 5 7 7 8 7 8 8 8 8 8 9 8 7 7 7 7 7
10 10 8 9 9 9 8 6 8 6 9 9 14 25 18 24 21 4 2 -8 -14 -4 5 5 6 9 8 8 4 6 12 18 12 6 10 7 7 6 4 5 5 7 6 4 6 7 7 7 7 7 7 6 7 7 6 6 7 6 5 4 4 5 8 10 10 11 9 9 8 6 6 7 9 10 6 3 3 5 5 4 5 6 7 7 7 7 8 8 7 8 9 8 8 6 7 7 6
9 9 9 8 8 8 9 9 10 7 11 15 7 8 10 13 16 4 -3 -2 -2 3 4 6 8 9 8 6 11 11 7 13 13 10 6 9 15 6 3 5 6 5 4 7 7 6 7 7 6 6 7 6 6 6 7 7 6 6 5 4 4 8 11 12 11 11 10 8 5 5 5 6 9 8 5 2 3 5 5 5 5 5 6 7 6 7 7 7 6 8 9 9 8 6 7 7 6
8 8 9 7 9 8 9 9 9 11 10 22 9 -9 12 11 -1 -11 -14 8 9 2 11 13 9 8 12 11 11 8 2 3 7 11 4 3 8 3 4 7 6 4 6 7 6 7 6 6 6 6 6 6 7 6 6 6 5 4 4 5 7 10 8 8 11 11 10 7 3 2 4 5 8 7 4 3 3 5 7 7 4 5 6 7 6 6 7 7 6 7 8 9 8 7 7 8 7
8 8 10 7 11 7 8 9 7 14 4 26 24 -16 6 7 -10 -5 -11 3 5 1 12 10 9 9 13 14 9 9 5 5 8 7 3 1 1 2 7 7 6 6 7 7 5 6 6 6 5 6 6 5 6 5 6 5 3 4 6 7 9 8 3 4 8 9 9 7 3 0 2 5 7 6 4 4 4 4 7 7 4 6 6 6 7 6 7 7 6 7 8 9 8 8 9 8 7
8 7 10 8 9 8 9 10 8 15 7 22 24 -15 -1 4 -9 2 -1 5 4 1 12 10 10 10 9 8 7 12 8 10 11 4 4 7 7 8 8 8 7 6 7 6 6 7 6 6 6 7 6 5 5 5 6 3 3 7 9 9 10 6 2 5 6 7 7 6 4 3 4 5 4 5 5 4 3 5 9 7 5 6 6 6 7 6 7 7 7 7 8 9 8 9 9 8 7
8 8 10 8 8 10 7 11 10 14 20 14 7 -2 3 7 6 7 -2 2 5 -0 13 19 16 11 5 6 6 5 6 7 4 2 5 6 5 5 5 6 5 6 9 9 8 8 8 7 7 6 5 6 6 5 5 6 9 10 10 10 9 8 6 6 6 6 6 6 5 4 6 6 4 3 3 3 3 6 8 5 4 6 6 6 6 6 7 7 8 7 7 8 8 8 9 9 7
8 9 8 9 8 11 9 12 11 11 25 13 4 12 -3 -7 11 17 8 8 12 3 7 15 18 18 9 8 8 3 5 5 2 3 3 2 5 5 4 5 6 7 9 9 7 8 8 6 6 6 9 8 5 6 7 8 10 10 11 11 10 9 8 8 7 6 6 6 6 6 8 7 7 4 2 3 4 7 6 2 4 6 5 6 7 6 7 7 7 7 6 7 9 9 9 9 8
8 9 8 11 9 10 11 10 15 15 20 15 5 5 -4 -6 5 15 20 20 16 9 11 8 7 12 9 8 8 6 6 4 6 6 4 7 8 5 5 6 8 9 8 7 6 6 5 5 6 6 7 6 5 6 7 10 12 14 12 11 11 9 9 9 7 7 7 6 5 6 6 8 8 3 2 3 4 8 6 2 4 5 6 7 7 7 7 7 7 7 7 6 8 9 9 8 9
7 9 9 9 10 11 12 11 16 8 4 18 5 -6 7 4 3 11 11 14 12 12 17 11 7 7 6 8 4 3 5 4 5 7 7 7 4 4 8 9 8 9 7 7 8 6 4 6 6 5 6 5 6 7 10 14 14 12 11 13 12 9 9 10 8 8 9 7 5 5 6 8 7 3 4 3 4 10 7 2 4 5 6 7 6 7 6 6 6 7 7 7 7 8 8 8 9
8 9 10 8 11 9 12 11 10 4 0 22 11 -4 9 3 13 24 10 8 8 11 14 5 3 5 9 11 5 8 9 7 8 7 5 2 4 7 10 9 8 8 6 7 9 7 7 7 5 5 5 5 8 13 15 11 9 8 9 12 10 10 13 11 10 9 9 9 7 7 6 5 3 2 4 5 6 9 4 2 5 6 6 6 6 6 5 6 6 8 8 7 7 7 8 8 9
8 8 8 7 10 8 13 7 -2 5 4 11 6 -3 4 2 15 22 12 8 7 20 22 9 5 6 14 11 5 10 9 10 10 2 -2 2 7 8 9 8 6 7 7 6 7 7 7 5 7 8 7 8 11 13 11 6 10 11 11 14 11 13 15 11 10 10 10 8 8 7 8 7 6 7 9 9 9 5 2 5 7 6 6 5 5 4 5 7 7 8 8 8 7 6 7 8 10
9 8 7 7 8 7 12 7 -4 2 6 8 5 2 5 0 5 12 11 11 16 21 8 8 20 14 11 9 10 13 10 11 5 -1 4 10 9 6 6 7 7 8 7 6 7 7 7 9 8 9 12 13 12 11 7 9 17 16 16 15 9 11 13 13 12 10 8 6 6 5 7 7 8 14 11 5 4 4 4 5 4 3 4 3 4 5 7 8 8 9 9 8 8 7 7 8 9
10 8 7 8 10 11 11 9 7 -0 -0 13 7 -0 2 -3 7 16 11 8 9 4 -9 -1 16 15 8 7 15 17 13 9 3 6 10 8 5 6 5 6 7 6 6 4 8 8 6 9 6 11 19 15 10 2 2 13 18 12 8 5 6 13 14 12 12 10 8 8 9 11 16 13 15 21 9 3 8 8 7 3 3 4 5 4 5 6 7 8 8 9 9 8 8 7 7 8 9
8 7 9 11 12 18 15 4 12 8 -3 16 13 -2 4 4 8 17 18 13 -1 -1 8 7 8 13 10 7 13 13 3 0 6 6 5 6 5 6 7 7 6 4 5 4 9 9 6 5 3 8 9 7 1 -4 11 18 7 1 1 5 14 15 9 7 8 6 4 9 10 15 23 17 23 25 9 9 13 7 5 6 8 8 8 7 7 6 7 8 7 8 8 7 8 7 7 8 9
8 8 9 12 11 14 13 -1 8 16 1 9 10 -1 10 6 1 14 26 19 1 2 5 3 12 16 11 6 8 9 3 2 7 3 4 9 6 5 6 7 7 5 6 10 10 7 8 5 4 5 1 6 5 8 22 11 -0 6 6 10 15 10 8 9 7 5 6 12 9 11 21 17 18 18 10 12 7 2 6 10 11 9 9 7 6 7 7 7 7 7 7 7 7 7 8 8 9
8 10 10 10 16 12 6 -3 -0 13 5 -0 -1 0 10 7 1 8 17 14 7 7 2 1 9 10 10 5 -1 4 7 3 -1 2 8 7 4 6 5 4 6 4 4 9 9 6 6 4 7 13 14 13 8 11 13 4 7 7 4 8 9 13 15 8 3 7 10 11 7 11 24 21 8 2 10 12 1 3 9 8 8 7 6 5 5 7 7 7 8 8 8 8 7 6 7 7 9
5 8 10 9 20 10 -6 -6 -1 9 10 2 -2 4 17 22 15 7 10 13 7 8 10 9 6 7 10 3 -0 3 1 -1 2 9 9 6 6 3 0 4 7 6 -0 -2 1 4 6 7 10 11 11 8 5 7 5 6 8 4 9 11 13 22 15 1 2 7 8 7 11 20 25 20 8 4 11 7 2 8 7 6 7 5 5 5 7 8 8 9 10 11 9 8 7 6 6 8 9
6 5 9 15 24 7 -9 4 13 8 -1 -5 -7 -0 18 23 12 6 8 8 8 10 10 11 11 11 7 4 8 5 0 2 8 13 8 8 9 0 -3 1 6 9 4 -1 1 9 11 9 10 4 1 6 9 11 9 7 8 10 13 10 16 18 1 -0 7 9 12 12 17 24 19 14 14 13 6 -1 5 10 4 7 8 6 8 8 8 8 8 12 12 12 12 12 9 7 7 7 8
10 9 10 16 14 -11 -16 7 16 9 -2 -2 -3 -6 6 10 5 11 12 8 8 6 7 11 11 10 8 12 9 3 9 7 6 9 5 6 7 3 1 0 5 8 7 5 4 10 12 7 6 4 6 11 11 12 12 9 11 14 12 11 13 5 2 14 13 12 17 16 16 15 10 10 15 17 11 4 5 3 2 7 5 4 11 14 15 13 11 11 10 8 9 11 11 12 10 8 9
10 10 10 15 11 -14 -16 3 6 6 9 14 14 4 2 5 8 16 13 16 15 3 11 12 6 10 8 8 5 7 16 7 4 7 5 3 2 5 4 3 5 1 2 1 -1 4 8 8 7 6 9 10 6 8 9 9 13 13 12 14 13 13 16 15 11 11 6 2 7 10 9 10 10 7 5 6 6 6 9 9 5 4 8 13 18 17 16 13 12 14 11 8 8 10 12 12 11
7 9 10 11 11 -3 -7 -1 -6 0 12 17 19 13 11 11 13 17 10 19 23 2 4 9 6 13 11 8 12 21 16 0 2 2 4 4 0 6 6 6 6 3 5 -1 1 8 6 7 8 6 5 2 4 7 8 11 14 11 10 8 11 16 8 6 15 13 0 -5 0 4 6 9 8 -3 -8 -2 4 8 12 12 12 7 3 6 10 10 9 9 9 10 12 13 10 8 9 10 10
6 7 10 8 8 5 1 3 -3 -1 9 11 13 11 9 10 9 12 4 8 21 8 0 6 6 7 7 5 9 17 0 -12 5 4 3 6 2 7 6 6 7 5 8 4 9 14 10 10 10 7 4 5 11 11 8 10 11 12 11 8 14 17 11 14 12 4 3 3 3 4 3 8 11 6 6 9 9 10 12 13 12 9 6 6 12 12 7 8 6 1 6 16 18 15 9 5 8
6 5 7 8 9 4 -2 6 6 2 7 7 10 10 5 4 4 5 -2 -6 9 12 4 2 5 8 8 3 3 10 -8 -16 6 6 2 5 3 6 5 6 9 7 8 8 12 13 13 15 12 9 6 8 11 11 11 10 9 11 10 12 18 15 11 8 -3 -1 7 8 12 12 7 11 12 10 13 15 14 14 13 12 10 11 11 8 13 16 12 13 14 10 10 11 11 14 12 7 8
5 5 6 7 8 3 -3 3 7 5 8 6 7 11 7 5 4 4 2 2 12 14 6 1 0 1 6 8 8 8 -1 -4 6 6 3 4 5 6 6 7 8 9 9 9 9 12 16 12 8 9 8 11 12 10 10 10 11 11 13 18 15 1 -3 1 2 7 9 13 19 13 7 10 13 12 13 13 10 9 10 10 9 11 15 14 13 11 10 13 17 17 12 8 7 11 16 12 7
4 4 9 9 4 5 3 3 9 7 4 6 7 8 8 5 4 5 4 5 9 7 8 13 3 -4 1 5 5 4 2 1 5 10 8 4 6 6 6 7 7 7 10 12 9 12 16 9 8 7 3 9 12 8 6 8 10 8 10 11 5 -0 5 10 10 8 8 13 16 10 6 6 9 10 10 11 9 10 11 10 10 10 13 11 10 9 7 10 16 16 11 10 10 9 16 18 11
6 4 7 8 5 6 5 4 9 7 4 5 5 7 7 6 8 11 12 9 11 6 0 10 10 1 3 3 1 4 5 2 3 10 9 5 7 6 7 7 6 7 8 11 11 12 14 9 10 6 0 5 9 10 9 5 6 10 10 2 -2 6 13 11 10 10 6 6 8 9 7 7 10 8 8 10 12 16 12 9 9 10 12 8 9 11 7 9 11 11 11 11 11 9 12 16 9
6 7 5 6 9 7 5 6 8 7 7 5 4 9 7 7 9 10 16 11 17 28 9 4 15 5 -1 4 4 5 8 7 4 7 6 6 8 8 10 7 6 8 6 8 10 9 10 9 12 13 9 7 9 14 14 11 12 12 8 3 7 13 10 5 7 6 1 3 9 8 7 9 9 7 9 8 12 14 5 3 5 6 10 9 10 11 9 11 9 9 10 12 16 13 14 18 10
6 8 8 8 11 8 7 6 8 8 7 5 6 8 7 9 8 7 16 0 -8 20 18 2 11 9 2 5 4 4 6 4 4 6 4 5 10 9 9 8 8 8 5 9 12 8 2 -1 5 12 12 8 13 12 6 11 12 6 5 9 12 4 -1 4 8 6 4 9 11 9 9 8 6 6 8 6 9 10 5 7 9 7 7 6 7 8 9 10 9 9 7 13 16 8 17 23 11
7 9 9 9 9 8 10 7 9 9 5 7 4 6 9 7 9 8 12 7 -9 -1 11 7 7 8 6 5 5 4 2 6 8 5 4 7 10 9 10 10 9 7 5 7 15 11 -4 -8 -3 5 9 11 17 13 2 4 8 6 7 12 6 -4 0 8 7 6 9 11 10 8 7 7 7 7 7 7 6 7 8 9 7 6 7 7 8 8 10 8 10 11 4 9 9 5 21 22 8
10 11 9 11 11 8 10 10 14 12 7 9 4 7 8 6 25 18 -4 5 11 7 8 9 9 7 2 3 4 2 4 11 11 4 4 8 9 8 8 11 10 8 7 6 14 9 -8 -5 -1 -0 10 15 17 16 6 8 14 9 8 18 16 8 10 4 0 9 13 10 8 7 7 6 7 6 6 6 6 7 7 5 4 6 7 8 10 10 9 6 11 13 5 3 3 12 23 11 9
9 12 10 10 11 11 13 15 14 10 14 21 14 9 7 11 20 8 -3 1 4 16 14 5 12 8 -2 2 1 0 9 12 10 8 8 9 10 8 8 10 9 9 10 8 12 5 -11 -6 1 2 10 14 20 18 3 5 14 7 5 15 10 3 6 3 5 12 8 5 4 3 3 3 3 4 5 4 6 7 5 5 6 7 6 6 8 9 8 5 8 11 9 7 4 13 11 -4 7
9 16 18 15 13 11 14 20 13 4 9 15 17 15 13 18 -1 -1 38 24 -3 21 20 6 20 13 -3 3 4 4 9 8 9 13 12 11 10 9 10 11 8 9 12 8 8 5 -6 -5 1 6 4 3 15 13 -3 2 11 7 2 -1 -6 0 9 7 7 5 0 3 5 4 5 6 7 6 6 5 8 8 5 6 7 6 7 6 5 7 10 9 8 9 11 12 7 8 6 0 10
17 17 21 22 19 15 15 18 7 3 1 -13 5 24 22 16 -21 -11 44 18 -8 26 23 5 10 9 4 1 1 6 6 4 7 10 11 12 9 9 11 10 8 9 9 8 8 5 0 -1 1 4 2 1 10 8 -0 3 6 6 3 -3 0 9 10 5 4 3 4 6 5 7 8 8 9 8 7 7 8 8 6 6 7 7 6 6 6 6 9 10 10 9 8 13 9 6 8 7 10
9 4 12 14 15 21 22 16 -1 4 10 -9 8 30 20 14 -15 -16 23 7 -18 -10 -4 3 0 2 10 3 0 7 8 7 7 8 10 10 9 9 9 9 10 9 5 5 8 8 6 4 3 3 4 3 7 8 7 4 3 6 1 -2 6 9 7 6 6 5 5 5 5 6 7 7 9 9 9 10 10 8 7 8 10 10 7 7 8 8 8 8 10 8 5 10 10 7 11 8 7
-1 -9 -0 8 15 20 16 17 4 -2 12 6 17 34 14 5 2 -6 5 12 12 -3 -15 -6 0 4 7 4 5 3 5 9 6 7 9 8 7 6 9 10 10 9 5 3 4 8 8 5 4 4 7 6 6 8 8 5 6 6 -2 -3 5 8 8 7 7 8 7 6 7 6 7 8 8 8 9 10 9 8 9 10 9 11 11 10 10 10 9 7 8 7 6 11 10 7 10 8 8
8 -3 -5 6 19 18 6 20 20 -2 8 9 6 30 26 4 2 3 -7 -5 22 29 6 -8 -3 7 6 5 5 1 5 8 4 7 8 9 7 6 9 8 9 9 7 6 4 5 7 9 9 5 6 7 6 6 7 6 3 3 5 3 4 9 11 7 6 7 6 7 8 8 8 7 7 8 9 9 9 9 9 8 7 9 10 10 11 11 10 8 7 7 8 10 10 7 7 7 9
15 11 -6 -12 5 19 7 10 17 -4 -0 10 -7 4 30 23 5 5 5 -5 -1 9 12 15 9 1 5 5 -2 -1 6 2 2 8 8 9 8 7 7 4 7 6 4 5 5 9 10 9 10 7 6 7 8 8 6 6 5 8 13 7 5 11 8 4 5 4 5 8 9 8 7 7 8 9 9 10 9 9 10 8 8 8 8 8 10 11 11 10 8 7 8 8 7 7 8 9 8
18 23 3 -11 0 18 10 2 14 9 1 -1 -19 -27 -3 19 13 8 13 4 2 10 12 19 16 4 5 5 -2 3 8 5 10 14 8 7 8 7 4 2 3 4 4 6 9 15 14 8 5 4 7 7 7 9 7 7 8 8 6 -0 2 10 6 4 7 7 7 8 8 7 7 6 8 10 12 12 10 10 10 9 9 8 6 5 5 7 9 10 10 8 7 8 8 8 8 8 10
16 18 13 18 10 -0 8 11 12 18 19 8 4 8 -1 -0 8 11 18 6 -5 1 -4 -6 5 9 6 4 5 7 5 7 15 14 5 4 9 6 3 3 4 3 4 10 15 17 16 15 10 6 9 8 7 11 9 7 8 12 17 12 7 8 8 8 7 7 8 7 7 6 5 6 6 8 11 12 13 12 10 9 8 8 6 3 -0 0 3 6 10 10 8 9 9 9 9 9 11
13 11 14 25 10 -7 2 11 2 0 13 7 13 45 32 3 -3 -6 9 11 -13 -13 -5 -2 6 9 7 6 5 6 8 12 11 5 0 3 8 5 4 8 10 5 6 16 19 15 15 13 9 9 8 7 11 11 9 9 10 17 21 13 8 7 6 8 7 8 9 7 8 6 6 7 5 5 7 9 11 10 11 10 9 9 8 7 2 -2 -2 -2 2 8 10 9 8 8 9 9 7
16 17 19 18 15 18 3 -4 10 12 23 12 -9 20 29 8 8 9 21 23 7 10 14 10 9 7 7 5 -0 6 17 15 5 5 7 5 7 8 6 8 11 8 8 20 16 7 10 4 -0 6 6 9 12 9 12 12 7 14 16 4 6 10 7 8 9 9 9 7 8 8 8 9 7 6 5 5 6 6 7 7 7 9 9 8 8 5 3 -0 -1 4 8 10 10 9 9 8 7
20 10 8 18 25 26 -8 -20 11 13 23 29 -2 2 16 8 8 9 12 9 6 18 17 10 11 7 7 6 2 7 13 11 8 12 12 6 7 11 8 7 19 19 9 12 13 9 14 10 6 8 9 14 11 11 13 4 7 22 19 8 8 8 6 9 10 7 8 8 9 10 9 8 6 6 5 4 6 6 5 6 5 5 5 5 7 8 8 6 4 5 6 8 9 10 9 8 8
25 8 -3 18 31 25 -15 -27 9 10 7 21 14 9 14 21 18 -3 -6 -1 -2 6 11 13 14 8 6 7 11 13 11 13 16 14 12 9 7 8 7 -2 1 13 13 8 7 13 16 11 9 7 10 14 11 19 17 11 30 25 -2 3 13 9 7 8 7 8 10 8 6 6 5 5 4 4 6 6 7 8 7 8 8 7 8 8 6 6 7 8 8 8 9 8 6 9 11 9 9
20 16 3 3 17 34 7 -24 -4 13 6 3 7 9 7 19 21 5 6 9 2 4 9 15 18 14 9 8 14 21 22 20 14 11 8 8 8 8 13 5 -12 -1 22 18 1 5 10 5 7 8 9 10 8 15 14 23 41 11 -17 4 14 7 8 8 8 9 9 6 2 3 3 3 6 7 8 7 6 8 7 7 9 10 11 12 13 12 9 10 11 12 14 12 8 10 12 11 10
15 8 2 -8 -0 30 30 3 -4 4 6 4 6 8 6 11 10 6 13 15 14 15 12 13 15 14 16 16 16 20 26 20 11 14 10 7 16 9 4 12 9 6 23 30 15 10 13 13 15 11 1 -2 -4 -1 6 23 26 -5 -11 10 10 8 10 6 10 8 4 4 1 2 4 3 7 9 8 7 10 13 13 12 11 11 12 14 17 16 12 12 14 16 17 16 12 11 13 14 13
22 8 5 1 2 18 19 9 9 10 6 9 12 8 7 14 12 4 4 5 10 14 11 8 6 11 18 18 15 15 17 13 13 23 13 3 13 4 -8 9 19 3 -7 1 5 6 10 11 10 5 -4 -4 -1 1 6 16 17 4 1 3 3 13 11 2 8 6 1 5 3 2 3 5 9 9 4 4 10 16 18 19 17 13 11 12 16 16 13 10 12 15 16 15 12 12 14 15 14
20 15 14 1 -1 19 16 3 12 20 15 13 12 7 5 11 11 6 1 -4 -4 6 19 20 11 11 13 10 12 13 9 7 12 18 10 3 10 7 3 12 17 5 -17 -18 -3 4 4 6 8 5 1 5 10 11 11 12 17 19 12 -0 -0 11 13 6 5 4 3 5 5 4 4 8 10 6 3 2 5 9 14 17 17 13 8 8 10 11 11 10 11 12 13 13 11 11 13 14 12
14 13 16 1 -5 13 13 4 9 12 13 15 13 16 16 8 7 13 13 7 -2 -3 11 22 14 7 13 17 16 12 9 9 10 10 6 7 11 9 8 8 11 14 2 -5 7 8 0 2 7 8 6 5 8 9 9 11 12 13 10 7 11 15 16 11 4 3 7 5 6 6 6 9 9 5 3 4 5 6 9 13 14 13 11 9 9 7 7 8 9 10 12 12 12 12 13 12 10
14 12 11 4 3 11 7 5 10 10 13 13 6 13 15 3 1 8 12 13 7 -5 -3 8 10 3 9 18 14 9 10 9 10 10 4 6 9 4 7 7 4 10 9 3 13 13 7 8 4 6 9 4 4 7 5 8 12 13 12 13 16 11 6 9 8 4 6 6 7 8 8 8 6 4 3 4 6 5 7 10 11 12 12 12 13 10 7 6 7 9 9 11 12 12 13 11 9
9 11 11 7 6 11 6 2 8 9 8 10 10 13 13 7 5 5 7 11 9 5 1 -1 2 4 5 10 13 13 11 9 8 4 3 11 10 -1 5 8 1 6 4 3 20 16 3 9 8 7 14 8 5 8 5 4 8 14 19 16 14 8 -1 2 9 8 5 4 6 8 8 7 3 2 4 4 5 5 7 8 9 11 11 11 12 12 11 9 8 8 8 10 12 12 13 13 11
8 11 14 12 10 10 1 -3 14 17 6 3 5 7 12 16 16 13 13 12 9 10 12 5 3 8 8 6 8 6 5 9 8 2 4 10 4 -4 5 10 4 7 -1 -3 22 13 -14 2 14 4 9 8 3 7 7 5 1 4 16 19 14 8 -1 -3 6 15 11 4 8 10 6 4 1 2 5 4 4 5 6 6 7 10 11 10 10 10 12 11 9 10 10 9 10 11 12 12 11
0 8 19 10 2 9 6 -2 5 15 16 14 3 -3 2 7 11 14 14 11 7 6 8 8 7 13 13 7 6 6 6 8 4 4 7 5 1 -4 -1 6 3 7 4 -2 19 21 -5 -1 9 5 10 10 4 6 6 4 -1 -3 9 19 18 11 3 -2 2 11 14 9 13 15 5 -0 1 3 4 3 3 5 4 5 7 8 10 11 10 9 11 12 10 10 12 10 10 9 9 8 8
-6 1 17 12 -0 1 7 8 5 5 13 22 16 5 2 3 5 10 10 9 9 8 10 12 11 14 13 8 7 2 0 4 3 6 6 1 5 -0 -8 4 7 2 -1 -4 15 26 4 -7 1 7 10 3 -2 2 4 8 10 6 5 12 18 14 7 6 3 5 14 13 11 12 4 -1 1 2 3 2 3 5 3 5 8 10 11 12 11 10 11 13 11 9 10 11 10 9 9 8 7
8 11 8 6 9 8 2 5 9 4 1 9 16 9 3 5 4 3 6 5 7 11 17 22 21 18 14 15 21 16 12 15 8 4 3 -2 6 8 -2 5 9 -1 -5 0 12 11 -6 -5 6 5 3 -2 -4 -1 1 6 4 -3 -2 5 12 11 10 18 19 11 10 9 9 9 2 -1 1 2 3 4 5 5 4 4 6 8 10 12 13 12 10 12 14 12 10 10 10 10 8 7 7
7 19 12 -1 4 8 6 8 11 11 3 -3 6 9 6 7 4 2 7 7 8 8 5 5 9 11 9 10 16 18 17 13 3 1 5 1 2 7 3 5 6 1 -1 2 3 -7 -11 4 9 4 6 7 6 6 7 8 -2 -13 -5 8 11 10 12 17 14 5 2 4 10 11 3 1 3 2 4 5 5 7 6 4 6 6 7 9 12 14 13 12 13 13 12 10 10 9 7 6 6
Height
5832 5833 5833 5833 5834 5834 5834 5835 5835 5836 5837 5837 5839 5840 5842 5845 5845 5847 5847 5847 5844 5841 5844 5844 5844 5844 5844 5847 5847 5844 5846 5847 5848 5847 5845 5844 5845 5846 5848 5848 5848 5848 5849 5849 5849 5849 5849 5849 5848 5848 5847 5847 5846 5846 5846 5846 5846 5845 5845 5844 5843 5843 5842 5842 5842 5841 5840 5840 5840 5839 5839 5839 5838 5838 5838 5839 5839 5839 5838 5838 5838 5838 5837 5837 5837 5836 5836 5835 5835 5835 5835 5835 5834 5835 5834 5834 5834
5830 5830 5830 5831 5831 5831 5831 5833 5833 5833 5834 5835 5838 5838 5841 5842 5844 5847 5844 5844 5841 5836 5840 5840 5840 5844 5843 5846 5844 5841 5843 5844 5844 5845 5844 5843 5844 5845 5846 5847 5846 5846 5847 5847 5847 5847 5847 5847 5846 5846 5845 5845 5845 5845 5845 5844 5844 5843 5843 5842 5842 5841 5841 5840 5840 5839 5839 5838 5838 5838 5837 5837 5837 5837 5837 5837 5837 5837 5837 5837 5837 5836 5836 5836 5836 5835 5835 5835 5834 5834 5834 5834 5834 5834 5834 5834 5834
5827 5827 5828 5828 5828 5828 5829 5830 5830 5831 5832 5834 5836 5837 5839 5840 5841 5843 5842 5842 5836 5831 5836 5836 5838 5844 5843 5842 5841 5838 5841 5843 5842 5842 5842 5841 5843 5844 5844 5845 5844 5844 5845 5845 5846 5845 5845 5845 5844 5844 5843 5843 5843 5843 5843 5842 5842 5841 5841 5840 5840 5839 5839 5838 5838 5837 5837 5836 5836 5836 5835 5835 5835 5836 5836 5836 5836 5836 5836 5836 5835 5835 5835 5835 5835 5834 5834 5834 5834 5833 5833 5833 5833 5833 5834 5834 5834
5824 5825 5825 5825 5825 5826 5826 5827 5828 5829 5830 5831 5834 5836 5838 5840 5841 5839 5837 5835 5830 5830 5832 5834 5837 5840 5840 5838 5837 5838 5839 5840 5839 5839 5840 5840 5842 5843 5842 5843 5842 5843 5843 5843 5844 5843 5843 5843 5842 5842 5841 5841 5841 5841 5840 5840 5840 5839 5839 5838 5838 5837 5837 5836 5836 5835 5835 5835 5834 5834 5834 5834 5834 5834 5834 5834 5834 5834 5834 5834 5834 5833 5833 5833 5833 5833 5833 5833 5833 5833 5833 5833 5833 5833 5833 5833 5833
5821 5822 5822 5823 5822 5823 5824 5825 5826 5827 5828 5830 5834 5838 5839 5839 5838 5833 5828 5827 5828 5829 5830 5834 5836 5835 5837 5836 5835 5838 5836 5837 5837 5837 5838 5839 5841 5841 5841 5841 5840 5841 5841 5841 5841 5841 5841 5840 5840 5839 5839 5839 5839 5839 5838 5838 5838 5838 5837 5836 5836 5835 5835 5834 5834 5833 5833 5833 5832 5832 5832 5832 5832 5832 5833 5833 5833 5833 5833 5833 5833 5832 5832 5832 5832 5832 5832 5832 5832 5832 5832 5832 5832 5832 5833 5833 5833
5818 5819 5820 5820 5820 5821 5822 5822 5823 5825 5827 5829 5830 5834 5837 5835 5831 5825 5822 5825 5826 5826 5830 5834 5833 5831 5834 5834 5834 5834 5834 5834 5834 5835 5836 5838 5839 5839 5840 5840 5839 5839 5839 5839 5839 5839 5838 5837 5837 5837 5837 5837 5837 5836 5836 5836 5836 5835 5835 5834 5834 5833 5833 5832 5831 5831 5831 5831 5831 5831 5830 5830 5830 5831 5831 5832 5832 5832 5832 5832 5832 5831 5832 5832 5832 5832 5831 5831 5831 5831 5831 5831 5831 5832 5832 5832 5832
5815 5816 5817 5817 5817 5819 5819 5820 5821 5823 5825 5827 5827 5828 5831 5828 5824 5821 5821 5824 5823 5825 5831 5832 5829 5829 5830 5832 5831 5830 5832 5832 5832 5833 5834 5837 5837 5838 5838 5838 5838 5837 5837 5837 5837 5836 5835 5835 5835 5835 5835 5834 5834 5834 5834 5834 5833 5833 5833 5832 5832 5831 5831 5830 5830 5829 5829 5829 5829 5829 5828 5828 5829 5830 5830 5831 5831 5831 5831 5831 5831 5831 5831 5831 5831 5830 5830 5831 5831 5830 5830 5830 5831 5831 5831 5831 5832
5812 5813 5814 5814 5815 5816 5817 5818 5819 5820 5822 5825 5827 5826 5825 5822 5821 5820 5821 5822 5822 5825 5828 5828 5828 5827 5827 5828 5828 5828 5830 5830 5830 5831 5832 5835 5835 5835 5836 5836 5836 5836 5836 5835 5835 5834 5834 5834 5833 5833 5832 5832 5832 5832 5831 5831 5831 5831 5831 5830 5830 5829 5829 5828 5828 5828 5827 5827 5827 5827 5827 5827 5828 5828 5829 5829 5829 5830 5830 5830 5830 5830 5830 5829 5829 5829 5829 5829 5830 5830 5830 5830 5830 5830 5830 5830 5831
5809 5810 5811 5812 5812 5813 5814 5815 5817 5818 5819 5821 5825 5825 5822 5819 5819 5819 5820 5822 5824 5824 5824 5825 5826 5825 5825 5826 5826 5826 5827 5828 5829 5829 5831 5832 5833 5833 5833 5833 5834 5834 5834 5833 5833 5833 5832 5832 5831 5831 5830 5830 5829 5829 5829 5829 5829 5829 5829 5828 5827 5827 5826 5826 5826 5826 5825 5825 5825 5825 5825 5825 5826 5827 5827 5828 5828 5828 5829 5829 5829 5829 5828 5828 5828 5828 5828 5828 5828 5829 5829 5829 5829 5829 5829 5829 5830
5806 5807 5808 5809 5810 5811 5812 5814 5815 5816 5817 5818 5821 5822 5818 5816 5816 5818 5820 5823 5824 5824 5823 5823 5823 5822 5824 5824 5824 5824 5825 5826 5827 5827 5828 5829 5831 5831 5830 5831 5831 5833 5832 5831 5831 5830 5830 5829 5829 5828 5827 5827 5827 5827 5827 5827 5827 5827 5826 5826 5825 5824 5824 5825 5824 5824 5823 5823 5823 5823 5823 5823 5824 5825 5826 5826 5827 5827 5828 5828 5828 5828 5827 5827 5827 5827 5827 5827 5827 5828 5828 5828 5828 5828 5828 5829 5829
5803 5804 5805 5806 5808 5809 5810 5812 5813 5815 5816 5817 5820 5816 5814 5814 5814 5818 5821 5822 5822 5822 5821 5822 5821 5821 5823 5822 5822 5823 5823 5824 5824 5826 5827 5827 5829 5829 5829 5829 5829 5830 5830 5829 5828 5828 5827 5827 5826 5825 5825 5824 5824 5825 5825 5824 5824 5824 5824 5823 5822 5822 5822 5822 5822 5822 5821 5821 5821 5821 5821 5821 5822 5823 5824 5824 5825 5826 5826 5826 5826 5826 5826 5826 5826 5826 5826 5826 5826 5827 5827 5827 5828 5828 5827 5828 5828
5800 5801 5803 5804 5805 5807 5808 5809 5811 5814 5815 5817 5818 5812 5811 5812 5813 5817 5819 5818 5819 5820 5820 5820 5819 5819 5821 5821 5820 5821 5821 5822 5823 5824 5825 5826 5828 5828 5827 5827 5826 5827 5827 5826 5825 5825 5824 5823 5823 5822 5822 5822 5823 5822 5822 5822 5821 5821 5820 5820 5820 5820 5820 5820 5820 5819 5819 5819 5819 5819 5819 5819 5820 5821 5821 5822 5823 5823 5824 5824 5824 5824 5825 5825 5825 5825 5825 5825 5825 5826 5826 5827 5827 5827 5827 5827 5827
5797 5798 5800 5801 5803 5804 5806 5808 5810 5814 5817 5818 5814 5809 5808 5808 5812 5816 5814 5814 5816 5818 5819 5817 5815 5817 5820 5819 5819 5820 5820 5821 5822 5823 5823 5824 5827 5826 5824 5824 5824 5824 5825 5824 5823 5822 5821 5820 5820 5820 5820 5821 5820 5820 5819 5819 5818 5818 5818 5818 5818 5818 5818 5817 5817 5816 5816 5816 5816 5816 5816 5817 5817 5818 5818 5819 5820 5820 5822 5822 5822 5823 5823 5824 5824 5824 5824 5824 5824 5825 5826 5826 5826 5825 5825 5826 5826
5794 5796 5797 5798 5800 5802 5803 5805 5808 5813 5817 5815 5809 5806 5805 5804 5810 5812 5811 5812 5813 5817 5817 5811 5813 5816 5818 5817 5817 5818 5819 5820 5821 5821 5821 5822 5824 5823 5821 5822 5821 5822 5823 5822 5820 5819 5818 5817 5817 5818 5819 5818 5817 5817 5816 5815 5815 5815 5816 5816 5816 5815 5815 5814 5814 5814 5814 5814 5814 5814 5813 5814 5814 5814 5815 5816 5816 5817 5819 5820 5820 5821 5822 5822 5822 5822 5823 5823 5823 5824 5824 5825 5825 5824 5824 5825 5825
5791 5792 5793 5795 5797 5799 5801 5803 5806 5811 5815 5811 5806 5805 5802 5802 5807 5809 5809 5811 5813 5816 5814 5808 5811 5814 5814 5815 5814 5815 5817 5818 5819 5820 5819 5820 5821 5819 5819 5819 5819 5820 5820 5819 5818 5816 5815 5815 5816 5816 5816 5814 5814 5814 5813 5813 5813 5814 5814 5814 5814 5813 5813 5812 5812 5811 5812 5811 5811 5810 5810 5810 5810 5811 5812 5813 5814 5815 5817 5818 5818 5819 5820 5820 5820 5821 5821 5821 5822 5822 5823 5823 5823 5823 5823 5824 5824
5788 5789 5791 5793 5795 5797 5799 5802 5805 5808 5810 5806 5805 5804 5799 5800 5804 5806 5807 5809 5811 5811 5810 5807 5810 5811 5811 5813 5813 5814 5816 5816 5817 5817 5817 5819 5818 5817 5817 5817 5818 5819 5818 5817 5816 5815 5814 5813 5814 5813 5812 5812 5812 5812 5811 5810 5811 5813 5813 5813 5812 5811 5811 5810 5810 5809 5809 5808 5808 5807 5807 5807 5807 5809 5810 5811 5813 5814 5815 5815 5816 5817 5817 5818 5818 5818 5819 5819 5820 5820 5821 5821 5821 5821 5822 5822 5823
5785 5787 5788 5790 5793 5796 5798 5802 5805 5807 5808 5804 5802 5800 5796 5800 5802 5803 5805 5806 5808 5808 5808 5807 5807 5808 5809 5810 5811 5813 5814 5814 5816 5815 5815 5815 5815 5815 5815 5816 5817 5818 5816 5815 5815 5814 5813 5812 5811 5809 5809 5810 5811 5810 5809 5808 5810 5811 5811 5810 5810 5809 5809 5808 5807 5807 5807 5806 5806 5805 5805 5805 5805 5806 5808 5810 5812 5812 5813 5814 5814 5815 5815 5815 5816 5816 5816 5817 5817 5818 5818 5819 5819 5819 5820 5820 5821
5782 5784 5786 5789 5791 5794 5796 5801 5804 5806 5807 5800 5795 5793 5794 5801 5800 5799 5803 5804 5805 5806 5806 5804 5804 5805 5807 5809 5810 5810 5812 5813 5814 5813 5812 5812 5813 5814 5815 5816 5816 5816 5815 5814 5814 5813 5811 5809 5808 5806 5806 5808 5809 5809 5807 5806 5809 5809 5808 5808 5808 5807 5807 5806 5805 5805 5804 5804 5803 5803 5804 5804 5804 5806 5809 5811 5811 5810 5811 5812 5813 5813 5813 5813 5813 5813 5814 5814 5815 5816 5816 5817 5817 5817 5817 5818 5819
5780 5781 5784 5787 5788 5792 5795 5800 5804 5802 5801 5795 5790 5789 5794 5801 5799 5798 5802 5802 5803 5804 5803 5801 5802 5803 5805 5807 5807 5808 5809 5811 5810 5810 5811 5812 5814 5814 5813 5814 5814 5814 5814 5812 5811 5811 5810 5807 5806 5804 5804 5806 5807 5806 5804 5805 5806 5806 5805 5805 5805 5805 5804 5804 5803 5802 5802 5802 5801 5801 5802 5803 5804 5808 5810 5809 5809 5809 5810 5811 5811 5811 5810 5811 5811 5811 5811 5813 5814 5814 5815 5815 5815 5815 5816 5816 5817
5777 5779 5781 5784 5787 5790 5792 5797 5799 5795 5792 5791 5789 5789 5794 5798 5797 5797 5800 5800 5801 5801 5799 5799 5800 5802 5804 5805 5805 5805 5806 5807 5807 5808 5810 5812 5813 5812 5811 5811 5812 5812 5812 5810 5808 5808 5808 5805 5803 5801 5802 5804 5804 5803 5802 5802 5803 5803 5803 5803 5803 5802 5802 5801 5800 5799 5800 5800 5800 5801 5802 5803 5804 5807 5807 5807 5808 5809 5809 5809 5808 5808 5808 5809 5809 5810 5811 5812 5813 5813 5814 5814 5814 5814 5814 5815 5816
5776 5778 5780 5783 5786 5787 5791 5792 5790 5788 5787 5788 5788 5791 5794 5794 5794 5795 5797 5798 5798 5798 5796 5796 5798 5800 5802 5802 5802 5803 5803 5805 5806 5808 5809 5809 5810 5810 5809 5809 5810 5810 5809 5808 5806 5806 5806 5803 5800 5799 5800 5801 5800 5800 5800 5799 5800 5800 5801 5801 5801 5800 5799 5798 5798 5798 5799 5800 5801 5801 5802 5803 5804 5806 5806 5806 5807 5807 5807 5806 5807 5807 5808 5808 5808 5809 5810 5811 5811 5812 5812 5812 5812 5812 5813 5814 5815
5774 5776 5778 5781 5782 5784 5789 5788 5784 5783 5784 5785 5787 5792 5792 5789 5791 5794 5795 5796 5795 5795 5795 5794 5796 5797 5798 5800 5801 5801 5801 5804 5806 5806 5806 5806 5807 5808 5808 5807 5807 5808 5807 5806 5804 5805 5804 5801 5799 5798 5798 5797 5797 5798 5798 5798 5798 5799 5799 5799 5799 5797 5797 5796 5797 5799 5799 5800 5801 5801 5802 5803 5805 5805 5806 5806 5807 5806 5805 5806 5806 5807 5806 5806 5807 5807 5809 5809 5809 5809 5810 5810 5810 5810 5811 5812 5813
5771 5773 5776 5778 5779 5779 5781 5782 5779 5778 5781 5784 5787 5790 5789 5787 5791 5792 5793 5793 5791 5793 5793 5791 5793 5794 5796 5798 5799 5799 5800 5803 5803 5803 5804 5804 5803 5805 5805 5805 5805 5806 5806 5803 5802 5804 5803 5800 5798 5797 5797 5795 5796 5797 5797 5797 5797 5797 5798 5798 5797 5796 5796 5796 5797 5798 5798 5798 5798 5800 5802 5804 5805 5805 5806 5806 5806 5805 5805 5805 5805 5805 5805 5805 5805 5806 5807 5807 5807 5808 5807 5807 5807 5808 5808 5810 5811
5769 5771 5774 5776 5776 5775 5776 5778 5775 5774 5780 5784 5785 5787 5786 5788 5791 5790 5791 5790 5788 5790 5791 5791 5793 5793 5794 5795 5797 5798 5800 5800 5800 5801 5802 5802 5801 5802 5803 5803 5804 5804 5804 5802 5800 5801 5800 5798 5797 5796 5795 5794 5793 5794 5795 5795 5795 5796 5797 5798 5797 5795 5796 5796 5796 5797 5796 5796 5796 5799 5802 5803 5804 5804 5804 5804 5804 5804 5804 5803 5803 5803 5804 5804 5804 5804 5805 5806 5807 5806 5806 5805 5806 5806 5807 5808 5809
5766 5769 5772 5772 5774 5774 5775 5776 5773 5773 5780 5781 5782 5784 5784 5788 5788 5786 5789 5788 5786 5788 5790 5791 5792 5792 5793 5794 5795 5797 5799 5798 5797 5799 5800 5800 5800 5800 5801 5802 5802 5802 5802 5800 5798 5798 5797 5795 5794 5794 5794 5793 5792 5792 5793 5794 5794 5795 5795 5796 5796 5795 5796 5796 5795 5796 5796 5796 5797 5799 5801 5803 5803 5803 5803 5803 5803 5802 5802 5801 5800 5800 5801 5802 5802 5803 5803 5804 5805 5804 5804 5804 5805 5806 5806 5807 5809
5764 5767 5769 5770 5771 5772 5771 5772 5771 5773 5777 5778 5779 5782 5783 5786 5785 5783 5787 5786 5785 5786 5787 5788 5790 5790 5791 5792 5793 5795 5797 5796 5795 5796 5798 5798 5798 5798 5799 5799 5800 5800 5800 5799 5796 5795 5793 5792 5792 5792 5793 5793 5792 5792 5794 5795 5795 5795 5794 5794 5794 5794 5795 5795 5795 5795 5796 5796 5797 5799 5801 5802 5803 5803 5803 5802 5801 5800 5800 5799 5798 5798 5799 5800 5800 5801 5801 5802 5802 5802 5803 5803 5804 5804 5805 5806 5808
5763 5765 5766 5767 5768 5768 5768 5769 5770 5772 5774 5775 5777 5780 5781 5782 5782 5782 5786 5785 5785 5785 5784 5785 5787 5788 5789 5789 5791 5792 5794 5795 5794 5795 5796 5796 5796 5796 5797 5797 5798 5797 5797 5797 5795 5793 5792 5791 5790 5791 5792 5792 5792 5793 5794 5795 5795 5794 5793 5792 5792 5794 5794 5794 5794 5795 5795 5796 5797 5799 5801 5802 5802 5802 5802 5801 5800 5798 5798 5797 5797 5797 5798 5799 5799 5799 5800 5800 5801 5801 5802 5802 5802 5802 5803 5804 5806
5761 5762 5761 5763 5765 5765 5767 5767 5768 5770 5771 5772 5775 5777 5778 5779 5779 5781 5785 5784 5783 5784 5783 5782 5784 5786 5787 5788 5789 5790 5791 5792 5793 5793 5794 5794 5794 5795 5796 5796 5796 5795 5795 5794 5793 5792 5791 5790 5791 5791 5791 5791 5792 5793 5794 5794 5794 5793 5792 5791 5791 5794 5793 5793 5794 5795 5796 5797 5799 5800 5801 5801 5800 5800 5800 5799 5798 5796 5796 5797 5797 5797 5798 5798 5799 5799 5799 5800 5800 5800 5800 5800 5801 5802 5802 5803 5804
5758 5758 5758 5761 5763 5763 5765 5765 5766 5769 5769 5770 5772 5774 5775 5776 5778 5780 5783 5782 5780 5783 5783 5781 5782 5784 5785 5786 5787 5788 5789 5790 5791 5792 5792 5792 5792 5793 5794 5795 5794 5793 5792 5791 5791 5790 5791 5791 5792 5792 5791 5790 5790 5792 5792 5792 5793 5793 5792 5790 5791 5792 5793 5793 5794 5795 5797 5798 5799 5799 5798 5798 5797 5797 5797 5797 5795 5794 5795 5797 5797 5797 5797 5797 5797 5798 5798 5799 5800 5800 5800 5800 5801 5801 5802 5803 5803
5755 5756 5757 5759 5760 5761 5763 5763 5765 5767 5768 5769 5769 5771 5773 5774 5777 5779 5780 5780 5779 5780 5782 5781 5780 5782 5783 5784 5785 5786 5787 5789 5790 5790 5790 5790 5791 5792 5793 5793 5792 5791 5789 5789 5790 5790 5791 5791 5790 5790 5790 5790 5789 5789 5790 5791 5792 5793 5793 5791 5791 5792 5793 5793 5794 5795 5796 5797 5797 5796 5796 5795 5795 5796 5796 5796 5794 5792 5793 5795 5795 5795 5795 5795 5796 5796 5797 5798 5799 5799 5799 5800 5800 5800 5801 5801 5802
5753 5753 5754 5756 5757 5758 5761 5762 5763 5765 5766 5767 5767 5768 5771 5773 5775 5777 5778 5777 5778 5779 5780 5780 5780 5779 5780 5781 5782 5784 5786 5787 5788 5788 5788 5789 5790 5791 5791 5791 5790 5789 5788 5787 5788 5789 5789 5789 5788 5787 5788 5789 5789 5788 5787 5789 5792 5793 5794 5792 5791 5792 5793 5793 5794 5795 5795 5795 5795 5794 5794 5794 5794 5795 5795 5795 5794 5792 5792 5794 5794 5794 5794 5794 5794 5795 5796 5797 5798 5799 5799 5799 5799 5799 5800 5800 5801
5750 5751 5752 5754 5754 5757 5759 5760 5761 5762 5764 5765 5765 5766 5769 5772 5773 5775 5776 5774 5775 5779 5778 5779 5779 5776 5777 5779 5781 5782 5783 5785 5785 5786 5787 5787 5789 5789 5789 5789 5788 5787 5786 5785 5786 5787 5786 5787 5788 5787 5786 5787 5788 5787 5787 5788 5791 5792 5793 5793 5792 5792 5793 5793 5793 5793 5793 5793 5793 5792 5793 5793 5793 5794 5794 5794 5794 5793 5792 5793 5794 5794 5793 5793 5794 5794 5795 5797 5798 5798 5798 5798 5797 5797 5798 5799 5799
5747 5748 5749 5751 5752 5754 5757 5758 5759 5760 5762 5762 5761 5764 5767 5770 5772 5774 5775 5773 5772 5777 5777 5777 5777 5775 5775 5777 5779 5779 5780 5782 5783 5784 5785 5786 5787 5787 5787 5787 5786 5786 5785 5784 5785 5786 5786 5786 5787 5787 5785 5784 5785 5786 5786 5787 5788 5790 5791 5792 5791 5791 5792 5792 5791 5791 5792 5792 5792 5792 5792 5792 5792 5793 5793 5793 5793 5792 5791 5792 5794 5793 5793 5793 5794 5794 5795 5796 5797 5798 5798 5797 5797 5797 5798 5799 5798
5744 5746 5747 5749 5750 5752 5754 5757 5758 5757 5759 5760 5759 5761 5765 5769 5771 5773 5775 5772 5770 5773 5775 5775 5774 5773 5773 5775 5777 5778 5779 5781 5782 5784 5785 5785 5785 5785 5785 5784 5784 5784 5784 5783 5784 5785 5785 5784 5784 5785 5785 5783 5783 5784 5784 5785 5786 5788 5789 5790 5790 5790 5791 5790 5790 5790 5790 5791 5790 5790 5790 5790 5790 5791 5791 5792 5792 5791 5790 5791 5793 5793 5793 5793 5794 5794 5795 5796 5797 5797 5798 5797 5797 5797 5797 5798 5797
5743 5744 5745 5747 5749 5750 5752 5756 5760 5757 5756 5760 5758 5758 5763 5768 5769 5771 5774 5771 5768 5770 5772 5773 5772 5771 5771 5772 5775 5777 5778 5781 5781 5783 5783 5783 5783 5783 5783 5783 5782 5783 5783 5782 5783 5783 5783 5782 5781 5783 5784 5784 5783 5784 5784 5784 5785 5786 5788 5789 5789 5789 5789 5789 5789 5790 5789 5788 5788 5788 5788 5788 5788 5789 5789 5790 5791 5790 5790 5791 5792 5792 5792 5793 5794 5794 5795 5796 5796 5797 5797 5797 5796 5797 5797 5797 5797
5742 5743 5744 5746 5747 5748 5750 5754 5759 5758 5755 5758 5758 5757 5761 5765 5766 5768 5770 5767 5767 5769 5769 5771 5770 5769 5769 5770 5772 5774 5776 5778 5778 5779 5781 5781 5781 5781 5781 5781 5781 5782 5782 5781 5781 5781 5781 5780 5780 5781 5782 5783 5783 5783 5783 5784 5784 5786 5787 5788 5787 5787 5788 5788 5788 5788 5787 5787 5786 5787 5787 5787 5788 5788 5789 5790 5791 5790 5790 5791 5792 5792 5792 5792 5793 5794 5794 5795 5796 5796 5796 5796 5796 5796 5796 5796 5796
5738 5741 5743 5745 5745 5746 5749 5753 5756 5757 5755 5755 5756 5757 5760 5762 5763 5767 5768 5765 5765 5767 5767 5769 5769 5768 5766 5767 5769 5771 5773 5774 5775 5777 5779 5779 5779 5779 5780 5780 5780 5781 5781 5779 5778 5778 5778 5779 5778 5778 5779 5780 5780 5780 5781 5782 5783 5784 5785 5785 5786 5786 5787 5786 5785 5785 5785 5785 5786 5786 5787 5787 5788 5788 5789 5790 5791 5790 5790 5791 5791 5791 5791 5791 5792 5793 5793 5794 5794 5795 5795 5795 5795 5795 5796 5795 5795
5733 5737 5739 5743 5745 5745 5748 5752 5755 5755 5753 5754 5754 5755 5758 5760 5762 5765 5766 5764 5764 5765 5766 5767 5768 5768 5765 5764 5765 5769 5772 5774 5775 5777 5777 5777 5777 5777 5778 5778 5779 5779 5778 5776 5775 5774 5774 5775 5775 5776 5776 5777 5777 5778 5779 5780 5781 5782 5783 5783 5784 5785 5784 5784 5783 5783 5784 5784 5785 5786 5786 5787 5787 5787 5788 5789 5790 5790 5790 5790 5790 5791 5790 5790 5791 5792 5793 5793 5793 5794 5794 5794 5793 5794 5794 5794 5795
5730 5733 5735 5739 5743 5745 5747 5751 5755 5754 5750 5753 5754 5753 5756 5758 5760 5763 5764 5764 5762 5762 5765 5765 5766 5768 5764 5760 5762 5768 5772 5773 5773 5775 5775 5775 5775 5775 5776 5777 5777 5776 5775 5773 5771 5769 5769 5769 5770 5772 5773 5773 5774 5775 5776 5778 5779 5780 5781 5781 5782 5782 5782 5782 5782 5782 5783 5784 5785 5786 5786 5786 5786 5786 5787 5787 5788 5789 5789 5789 5790 5790 5790 5790 5790 5791 5791 5792 5792 5793 5793 5792 5792 5792 5792 5793 5793
5729 5732 5733 5736 5740 5744 5747 5749 5753 5752 5746 5749 5753 5752 5754 5755 5758 5760 5761 5764 5761 5758 5761 5763 5765 5766 5761 5757 5760 5765 5769 5769 5770 5772 5773 5773 5773 5773 5774 5774 5774 5772 5770 5767 5765 5764 5764 5764 5766 5768 5769 5770 5771 5772 5774 5776 5777 5779 5778 5778 5779 5780 5781 5781 5781 5781 5782 5784 5784 5785 5785 5785 5785 5785 5785 5785 5786 5786 5787 5788 5789 5789 5789 5790 5790 5790 5790 5791 5791 5791 5791 5791 5791 5792 5792 5791 5792
5727 5730 5731 5733 5737 5742 5747 5748 5749 5748 5742 5744 5750 5751 5751 5753 5756 5757 5757 5762 5761 5755 5758 5761 5763 5763 5758 5756 5759 5762 5765 5765 5767 5769 5770 5771 5770 5770 5771 5771 5770 5767 5764 5762 5763 5763 5761 5761 5762 5765 5767 5768 5769 5770 5772 5773 5775 5777 5776 5775 5777 5779 5780 5780 5780 5781 5781 5782 5783 5783 5783 5783 5783 5783 5783 5783 5783 5784 5785 5786 5786 5787 5788 5789 5790 5790 5790 5790 5790 5790 5789 5789 5789 5790 5790 5790 5790
5724 5727 5729 5732 5734 5738 5744 5746 5745 5744 5741 5742 5746 5748 5748 5750 5754 5755 5755 5759 5758 5754 5755 5759 5760 5759 5756 5754 5755 5759 5762 5763 5765 5767 5767 5766 5766 5767 5766 5765 5763 5761 5760 5760 5762 5763 5762 5761 5761 5764 5766 5766 5767 5768 5769 5771 5773 5774 5774 5775 5777 5779 5779 5779 5779 5780 5780 5781 5781 5781 5782 5782 5782 5782 5782 5782 5782 5782 5783 5784 5784 5785 5786 5787 5788 5789 5790 5790 5789 5789 5788 5788 5788 5788 5789 5789 5788
5722 5724 5727 5730 5732 5733 5738 5742 5741 5740 5740 5741 5742 5743 5745 5746 5749 5751 5752 5755 5754 5752 5754 5756 5757 5756 5753 5750 5751 5757 5761 5762 5764 5764 5763 5763 5762 5760 5759 5759 5759 5760 5760 5761 5763 5764 5764 5764 5764 5766 5768 5768 5768 5768 5769 5771 5771 5772 5773 5775 5777 5778 5778 5778 5778 5779 5779 5780 5780 5781 5781 5781 5782 5782 5781 5781 5781 5781 5782 5782 5783 5783 5784 5785 5786 5787 5787 5788 5788 5787 5787 5787 5786 5786 5786 5787 5787
5720 5723 5725 5728 5730 5731 5734 5737 5739 5737 5738 5739 5739 5739 5742 5743 5745 5748 5750 5750 5749 5749 5751 5753 5755 5754 5749 5746 5749 5757 5761 5760 5761 5761 5760 5759 5756 5755 5755 5758 5761 5762 5762 5763 5764 5765 5765 5765 5766 5767 5768 5768 5768 5769 5770 5771 5771 5773 5775 5775 5776 5776 5777 5777 5777 5778 5779 5779 5780 5781 5781 5782 5782 5782 5782 5781 5781 5781 5781 5782 5782 5782 5783 5783 5784 5784 5784 5785 5785 5785 5784 5784 5784 5784 5784 5785 5785
5719 5721 5724 5726 5728 5730 5731 5733 5736 5735 5734 5736 5736 5738 5739 5741 5744 5747 5747 5747 5747 5747 5748 5750 5752 5751 5745 5744 5749 5755 5757 5758 5759 5758 5756 5754 5754 5755 5758 5761 5761 5760 5762 5762 5762 5763 5763 5764 5766 5766 5766 5766 5767 5769 5771 5771 5772 5774 5774 5774 5775 5775 5775 5776 5777 5778 5779 5779 5780 5780 5781 5781 5782 5782 5782 5781 5781 5780 5780 5781 5781 5781 5782 5782 5782 5782 5782 5783 5782 5782 5782 5782 5782 5782 5782 5782 5783
5718 5719 5721 5724 5726 5728 5729 5730 5732 5732 5731 5732 5734 5736 5737 5739 5742 5744 5743 5743 5744 5745 5746 5747 5748 5746 5743 5744 5749 5752 5754 5756 5757 5754 5751 5751 5752 5755 5759 5762 5759 5757 5758 5759 5758 5759 5760 5762 5763 5764 5764 5765 5766 5767 5769 5769 5770 5772 5773 5773 5774 5774 5774 5776 5777 5778 5778 5779 5779 5780 5780 5780 5781 5781 5781 5780 5780 5779 5779 5779 5779 5780 5780 5781 5781 5781 5781 5781 5780 5780 5780 5780 5780 5780 5780 5780 5781
5717 5718 5719 5722 5725 5726 5726 5727 5729 5729 5729 5730 5732 5734 5735 5737 5740 5741 5740 5740 5742 5744 5744 5743 5743 5742 5742 5746 5748 5748 5750 5753 5752 5749 5748 5750 5751 5752 5756 5758 5757 5756 5756 5756 5757 5758 5759 5760 5760 5761 5762 5764 5766 5766 5767 5767 5767 5770 5773 5772 5773 5773 5774 5775 5776 5777 5777 5778 5778 5779 5779 5779 5779 5779 5779 5779 5778 5778 5777 5777 5777 5778 5778 5779 5779 5779 5779 5779 5778 5778 5778 5778 5778 5778 5778 5778 5779
5714 5716 5717 5719 5723 5724 5724 5725 5727 5726 5726 5728 5731 5733 5733 5734 5737 5737 5737 5737 5739 5741 5741 5740 5739 5739 5742 5745 5745 5744 5747 5749 5747 5745 5748 5749 5749 5751 5752 5752 5755 5757 5757 5755 5756 5757 5758 5759 5760 5761 5762 5764 5765 5765 5766 5766 5767 5769 5770 5770 5771 5772 5773 5774 5775 5776 5776 5777 5777 5777 5778 5778 5778 5778 5778 5777 5777 5776 5776 5775 5775 5775 5776 5776 5776 5777 5777 5777 5776 5776 5776 5776 5776 5777 5777 5777 5777
5712 5714 5716 5718 5720 5722 5722 5724 5724 5724 5725 5727 5730 5732 5731 5732 5734 5734 5733 5734 5736 5736 5735 5736 5737 5738 5741 5742 5741 5742 5744 5745 5744 5745 5749 5750 5749 5749 5750 5750 5753 5756 5756 5755 5755 5755 5755 5757 5758 5759 5761 5762 5763 5763 5763 5764 5766 5767 5768 5769 5770 5771 5772 5772 5773 5774 5774 5775 5775 5776 5777 5777 5777 5776 5776 5776 5775 5774 5774 5774 5774 5774 5774 5774 5774 5774 5775 5775 5774 5774 5774 5774 5774 5774 5774 5774 5774
5710 5713 5714 5716 5717 5718 5719 5721 5722 5723 5724 5726 5728 5729 5729 5729 5730 5731 5731 5732 5734 5733 5732 5734 5735 5736 5738 5738 5738 5740 5740 5740 5741 5745 5749 5749 5748 5749 5750 5750 5751 5752 5753 5753 5753 5753 5753 5753 5755 5756 5757 5758 5759 5760 5761 5762 5763 5764 5765 5767 5768 5770 5770 5771 5771 5772 5772 5773 5774 5774 5775 5775 5775 5775 5775 5774 5774 5773 5773 5773 5772 5772 5772 5772 5773 5773 5773 5773 5772 5772 5772 5772 5772 5772 5772 5772 5771
5710 5712 5713 5714 5715 5715 5717 5719 5720 5721 5723 5724 5725 5726 5727 5726 5725 5727 5730 5731 5731 5731 5731 5734 5733 5733 5735 5735 5735 5736 5736 5736 5738 5742 5746 5747 5746 5748 5749 5749 5749 5749 5750 5750 5749 5749 5750 5750 5751 5753 5754 5755 5757 5758 5759 5760 5760 5761 5762 5763 5765 5767 5769 5769 5770 5770 5771 5772 5772 5773 5773 5773 5773 5773 5773 5773 5773 5772 5772 5772 5771 5771 5771 5771 5771 5771 5771 5771 5771 5770 5770 5770 5770 5769 5769 5769 5769
5709 5710 5711 5711 5713 5714 5716 5717 5718 5719 5720 5721 5722 5723 5723 5723 5722 5725 5727 5727 5728 5730 5731 5732 5731 5732 5733 5734 5734 5734 5734 5734 5737 5741 5744 5745 5745 5746 5747 5748 5747 5747 5747 5748 5747 5746 5746 5748 5750 5752 5753 5755 5756 5757 5757 5758 5758 5759 5759 5761 5762 5764 5767 5768 5768 5769 5770 5771 5771 5771 5771 5771 5771 5771 5771 5771 5771 5771 5771 5770 5770 5770 5769 5769 5769 5770 5770 5770 5769 5769 5769 5768 5768 5768 5768 5768 5768
5707 5709 5709 5710 5712 5713 5714 5716 5716 5717 5718 5719 5720 5720 5720 5721 5722 5722 5724 5725 5726 5727 5728 5729 5730 5730 5730 5732 5735 5735 5734 5735 5737 5741 5743 5743 5744 5745 5746 5747 5746 5745 5744 5745 5746 5746 5745 5747 5749 5751 5753 5754 5755 5755 5755 5756 5756 5757 5757 5758 5760 5762 5764 5766 5766 5767 5768 5769 5769 5770 5770 5769 5769 5769 5769 5769 5769 5769 5769 5769 5769 5768 5768 5768 5768 5768 5768 5768 5768 5768 5768 5767 5767 5767 5767 5767 5767
5706 5707 5708 5710 5712 5712 5713 5714 5714 5715 5717 5717 5718 5718 5719 5720 5720 5719 5722 5724 5725 5724 5723 5725 5729 5729 5728 5730 5735 5735 5734 5735 5737 5740 5741 5742 5743 5743 5744 5746 5745 5743 5742 5742 5744 5745 5745 5745 5746 5748 5750 5751 5752 5752 5753 5753 5754 5755 5756 5756 5757 5759 5762 5764 5765 5765 5766 5767 5768 5768 5768 5768 5767 5767 5767 5767 5767 5768 5768 5767 5767 5767 5767 5767 5767 5767 5766 5766 5767 5767 5767 5767 5766 5766 5766 5766 5766
5704 5705 5706 5707 5709 5710 5711 5711 5712 5713 5714 5715 5717 5718 5717 5717 5717 5717 5718 5719 5721 5721 5721 5723 5728 5728 5728 5729 5731 5733 5734 5734 5736 5737 5739 5740 5741 5741 5742 5743 5742 5741 5740 5739 5741 5742 5743 5743 5743 5745 5747 5748 5749 5750 5750 5751 5752 5753 5754 5755 5755 5757 5759 5762 5763 5763 5764 5764 5765 5765 5766 5766 5765 5765 5765 5765 5766 5766 5766 5766 5766 5766 5766 5766 5766 5766 5765 5765 5765 5766 5766 5766 5766 5766 5766 5765 5765
5701 5702 5703 5704 5705 5706 5708 5709 5711 5712 5713 5713 5716 5717 5714 5714 5715 5715 5715 5716 5718 5718 5719 5721 5724 5725 5727 5728 5729 5731 5732 5733 5733 5734 5735 5737 5738 5738 5737 5737 5738 5739 5737 5737 5739 5740 5741 5741 5741 5742 5744 5745 5746 5747 5748 5749 5750 5751 5752 5753 5753 5754 5756 5758 5760 5761 5762 5762 5763 5763 5763 5764 5764 5763 5763 5763 5764 5764 5764 5764 5764 5764 5764 5764 5764 5765 5764 5764 5764 5764 5764 5765 5765 5765 5765 5765 5765
5699 5700 5701 5703 5703 5704 5706 5707 5708 5710 5710 5711 5714 5714 5711 5711 5713 5713 5713 5715 5716 5716 5717 5719 5720 5722 5725 5726 5727 5729 5730 5731 5732 5731 5731 5732 5733 5734 5733 5733 5735 5736 5736 5736 5737 5738 5739 5739 5739 5740 5741 5741 5742 5744 5745 5746 5746 5747 5748 5750 5750 5751 5753 5755 5757 5759 5760 5760 5761 5761 5761 5762 5762 5762 5762 5762 5762 5762 5762 5762 5762 5763 5763 5763 5763 5763 5763 5763 5763 5763 5763 5763 5764 5764 5764 5764 5764
5697 5698 5700 5701 5702 5703 5704 5704 5705 5707 5708 5709 5709 5709 5709 5710 5711 5711 5712 5713 5714 5714 5715 5715 5716 5718 5720 5721 5723 5725 5726 5728 5730 5729 5728 5728 5728 5730 5731 5731 5732 5732 5733 5734 5734 5735 5736 5736 5736 5737 5738 5738 5739 5740 5741 5742 5743 5744 5745 5746 5747 5748 5750 5752 5753 5756 5757 5758 5758 5758 5758 5759 5759 5759 5760 5760 5760 5760 5760 5760 5760 5760 5761 5761 5761 5762 5762 5761 5761 5761 5761 5762 5762 5762 5762 5762 5762